Lapse_Rate
6.2 6.4 6.4 6.5 6.6 6.7 6.6 6.6 6.8 6.9 6.9 7.0 7.0 6.9 6.8 6.9 6.9 6.9 6.9 6.9 6.7 6.6 6.4 6.2 6.7 6.4 5.9 5.4 6.5 6.6 6.3 6.8 7.6 7.8 8.0 7.2 6.9 6.9 6.5 5.9 6.0 5.7 5.9 5.9 5.5
5.8 6.0 6.1 6.3 6.5 6.6 6.6 6.5 6.6 6.7 6.8 6.8 6.9 6.7 6.7 6.7 6.8 6.9 6.8 7.0 6.4 6.3 6.1 6.6 5.8 6.1 6.0 5.3 7.2 7.4 7.7 7.7 7.7 7.7 7.4 7.4 7.2 6.9 6.5 6.3 6.2 6.0 5.8 5.7 5.6
5.7 5.8 5.8 5.8 6.0 6.2 6.3 6.4 6.4 6.6 6.8 6.8 6.7 6.6 6.7 6.7 6.7 6.6 6.8 6.9 6.4 6.8 7.1 6.5 6.6 7.1 6.8 6.3 7.1 7.1 8.0 7.2 7.8 8.1 7.7 7.4 7.0 6.7 6.5 6.3 6.1 6.4 6.1 6.0 5.8
5.5 5.6 5.7 5.8 5.8 5.7 5.9 6.1 6.2 6.3 6.5 6.6 6.5 6.6 6.7 6.8 6.9 6.8 6.6 6.5 6.5 6.7 6.9 6.3 6.7 7.1 7.6 7.9 7.4 7.7 7.2 8.1 8.0 7.9 7.6 7.5 7.1 6.8 6.5 6.6 6.4 6.3 6.2 6.3 5.9
5.3 5.4 5.5 5.6 5.7 5.7 5.6 5.7 5.8 6.0 6.2 6.4 6.4 6.4 6.5 6.6 7.0 6.7 7.0 7.0 6.8 6.4 6.7 6.7 6.5 6.4 7.4 8.2 8.0 8.6 8.5 8.2 8.6 8.4 8.0 8.0 7.6 6.9 6.8 6.7 6.4 6.3 6.2 5.8 5.5
5.2 5.3 5.4 5.5 5.6 5.6 5.6 5.5 5.5 5.6 5.8 6.0 6.0 6.2 6.4 6.6 6.8 6.5 6.7 7.2 7.2 7.1 6.5 5.7 6.2 6.3 7.6 7.8 8.7 7.7 8.7 8.7 8.5 8.4 8.1 7.8 7.8 7.3 6.7 6.6 6.5 6.3 6.2 5.6 5.2
5.1 5.1 5.2 5.4 5.5 5.6 5.5 5.5 5.5 5.5 5.5 5.6 5.7 5.8 6.0 5.9 6.5 6.6 6.8 7.0 7.0 7.4 7.7 6.2 6.9 7.2 6.9 6.5 7.9 8.3 8.0 8.6 8.4 8.3 8.3 8.6 7.8 7.4 7.0 6.9 6.6 6.4 5.7 5.5 5.3
5.0 5.1 5.1 5.2 5.4 5.5 5.6 5.5 5.4 5.4 5.4 5.5 5.6 5.7 5.8 6.1 6.3 6.2 6.5 6.8 7.0 7.4 7.5 6.8 6.8 7.4 7.6 7.6 7.7 8.2 8.3 8.3 8.2 8.0 8.4 8.3 8.3 7.6 7.2 7.0 6.6 6.4 5.7 5.7 5.6
5.1 5.1 5.1 5.1 5.2 5.5 5.5 5.5 5.4 5.3 5.3 5.4 5.5 5.6 5.9 6.0 6.2 6.1 6.2 6.8 6.9 7.2 7.1 6.7 6.7 7.3 7.6 7.8 8.3 8.2 8.6 8.3 8.4 8.3 7.8 8.1 8.6 8.1 7.4 7.1 6.8 6.7 6.2 5.9 5.8
5.2 5.2 5.1 5.2 5.1 5.2 5.4 5.4 5.4 5.4 5.3 5.4 5.4 5.5 5.8 6.0 5.8 5.9 6.0 6.2 6.4 6.1 6.3 6.6 6.8 7.0 7.9 8.0 7.8 8.0 8.1 8.0 8.1 8.5 7.5 7.6 7.9 8.7 7.9 7.4 7.1 7.0 6.6 6.2 6.0
5.2 5.2 5.2 5.2 5.2 5.2 5.2 5.1 5.2 5.2 5.2 5.3 5.3 5.6 5.7 5.9 5.8 6.0 5.9 6.0 6.0 6.0 6.6 7.1 6.9 7.4 8.5 8.3 8.0 8.7 8.7 8.7 8.3 8.2 8.2 7.8 7.5 7.1 7.8 7.8 7.4 7.2 7.0 6.9 6.4
5.2 5.3 5.3 5.2 5.3 5.3 5.1 5.1 5.1 4.8 4.9 5.1 5.5 5.6 5.9 5.8 5.8 5.8 5.9 6.0 6.0 6.4 6.6 7.0 7.6 8.2 8.6 9.0 8.4 9.0 9.4 8.8 8.7 8.0 8.3 8.6 6.9 7.5 7.3 7.4 6.9 7.1 6.8 7.4 7.3
5.5 5.3 5.4 5.4 5.3 5.3 5.3 5.1 5.3 5.1 5.3 6.0 6.0 5.7 6.0 6.0 6.0 6.1 6.0 6.1 6.2 6.5 6.9 7.2 7.9 8.4 8.7 9.2 8.9 9.2 9.5 9.4 9.2 8.8 8.9 8.8 7.5 7.9 8.0 8.1 7.8 7.2 6.8 7.2 7.5
5.7 5.6 5.5 5.5 5.4 5.4 5.2 5.2 5.0 4.8 4.9 6.6 6.3 6.4 6.1 6.1 6.1 6.3 6.5 6.6 6.3 6.6 7.0 7.1 8.4 8.9 8.9 9.2 9.2 9.1 9.5 9.2 9.4 9.0 9.0 8.6 7.7 8.2 7.9 7.6 8.0 7.1 7.2 7.1 7.3
5.7 5.8 5.7 5.6 5.6 5.6 5.6 5.4 4.8 4.6 5.0 6.9 6.8 6.7 6.6 6.4 6.7 6.7 6.6 6.6 6.7 6.9 7.1 7.7 8.4 9.2 9.4 9.3 9.2 9.4 9.6 9.3 9.1 9.5 9.2 8.9 8.6 8.8 8.1 7.4 8.3 8.1 6.5 7.0 7.3
5.9 6.0 6.0 5.8 5.7 5.6 5.4 5.5 5.2 5.2 6.0 6.9 7.0 6.8 6.7 6.6 6.8 6.9 7.0 7.0 7.1 7.1 7.1 7.4 7.8 8.3 9.0 9.1 9.2 8.6 9.1 9.0 9.3 9.5 9.4 9.0 8.8 8.4 8.2 8.4 7.9 8.6 8.7 7.8 7.5
6.3 6.3 6.3 6.2 6.1 6.0 5.9 5.6 5.4 5.9 7.6 7.8 7.5 7.3 7.0 7.0 7.0 7.0 7.2 7.3 7.3 7.3 7.3 7.7 8.0 8.3 8.6 9.2 9.0 8.9 9.2 9.0 8.6 8.5 8.4 8.6 8.4 8.8 8.5 8.2 8.4 9.0 9.0 7.7 7.9
6.7 6.7 6.8 6.6 6.5 6.3 6.2 5.7 5.6 7.3 8.3 9.3 9.0 8.1 7.6 7.5 7.4 7.5 7.5 7.5 7.7 7.7 7.6 7.6 8.1 8.8 9.4 9.3 9.2 9.0 9.2 9.4 8.4 6.6 7.6 9.4 9.3 7.9 8.4 7.8 7.3 8.0 7.1 7.9 7.5
6.9 7.0 7.0 7.0 6.9 6.7 6.4 6.0 6.8 8.4 8.4 9.0 9.5 9.3 8.6 8.3 8.1 7.9 8.1 8.0 8.0 8.1 7.9 8.2 7.9 9.1 9.4 9.7 9.5 9.3 9.2 9.3 9.4 9.0 8.6 8.7 8.3 7.1 7.6 8.1 8.0 7.0 5.9 7.1 6.9
6.8 7.0 7.1 7.2 7.0 6.7 6.3 7.0 7.9 8.3 7.7 8.7 9.2 9.5 9.6 9.3 9.0 8.9 8.5 8.5 8.5 8.8 8.4 8.6 8.5 9.0 9.4 9.6 9.7 9.6 9.6 9.5 9.6 8.5 8.2 7.7 8.4 8.3 8.4 8.2 8.2 8.3 7.4 7.3 7.7
6.7 6.7 6.8 7.2 6.9 6.6 6.5 7.1 8.0 8.4 8.2 8.2 8.9 9.0 9.1 9.1 9.4 9.4 9.4 9.3 9.2 9.4 9.4 9.2 9.0 9.0 9.4 9.6 9.5 9.5 9.4 9.4 9.2 9.3 7.8 7.3 7.9 8.3 8.0 7.3 7.2 7.5 7.9 8.0 8.4
6.5 6.5 6.1 6.5 6.5 6.6 6.8 7.1 7.7 8.4 8.1 8.1 8.7 8.9 8.9 9.1 9.2 9.5 9.5 9.6 9.7 9.6 9.6 9.5 9.5 9.5 9.3 9.5 9.5 9.6 9.0 9.5 9.4 9.2 9.5 9.1 8.7 8.7 8.2 8.0 7.8 7.9 8.4 8.3 8.3
6.5 6.1 5.9 6.3 6.3 6.5 6.7 6.9 7.4 7.5 7.8 8.3 8.6 8.8 8.8 9.0 9.1 9.2 9.5 9.9 10.1 9.7 9.5 9.5 9.5 9.4 9.1 9.3 9.6 9.7 9.6 9.5 9.6 9.6 9.5 8.3 8.1 8.6 8.0 6.8 6.6 6.6 8.2 8.0 8.0
6.6 6.4 6.2 6.3 6.7 6.6 6.8 6.9 7.3 7.9 8.1 8.2 8.3 8.8 8.5 8.9 9.0 9.0 9.2 9.5 9.7 9.5 9.4 9.4 9.5 9.2 8.4 9.1 9.3 9.2 9.4 9.4 9.4 9.1 9.0 9.1 8.5 8.3 8.3 7.5 7.3 5.1 8.2 8.0 8.0
7.0 6.3 5.7 6.2 6.4 6.9 7.1 7.1 7.5 7.7 8.3 8.8 8.7 8.1 8.4 8.2 8.4 8.6 8.8 9.1 9.5 9.6 9.5 9.3 9.1 9.2 9.2 8.7 9.1 9.5 9.7 9.6 9.2 9.0 9.1 8.9 8.9 8.7 8.4 8.1 8.2 7.1 7.8 8.1 7.7
7.1 7.3 6.9 7.3 7.0 6.8 7.0 7.2 7.5 7.7 8.0 8.2 8.8 8.4 8.5 8.3 8.2 8.1 8.4 8.6 8.9 9.2 9.3 9.3 9.0 8.7 8.7 8.7 9.0 9.3 9.5 9.9 9.7 9.2 8.7 9.0 9.0 8.7 8.2 8.6 7.8 6.6 7.7 8.3 8.3
7.0 6.9 7.0 7.6 7.6 7.6 7.8 7.7 7.7 8.0 8.1 8.1 8.9 9.1 9.1 8.1 8.0 7.8 8.3 8.3 8.2 8.6 8.7 8.3 8.6 8.7 8.1 8.9 9.0 9.1 9.5 9.6 9.3 9.5 9.0 8.3 9.1 8.5 8.4 8.3 7.7 7.3 8.1 8.4 8.6
Wind_Speed
15 14 14 14 14 14 13 12 14 15 13 13 14 13 13 15 19 4 5 6 7 18 8 5 10 11 5 7 3 4 2 4 4 6 9 9 16 13 10 20 16 5 20 17 15
16 15 15 14 14 14 14 13 11 13 15 16 14 13 12 12 4 9 9 9 15 18 6 7 3 19 5 5 4 2 3 8 4 3 13 15 15 12 8 8 18 20 20 19 17
17 16 16 16 15 14 14 14 13 11 11 13 14 13 12 9 4 5 18 15 16 17 7 10 16 3 8 10 11 7 5 4 6 8 13 12 14 12 10 18 20 24 22 19 16
17 18 18 17 16 16 15 15 14 13 11 10 11 12 11 4 4 4 10 15 15 8 3 14 10 7 4 5 10 6 17 5 8 6 13 12 10 9 12 17 22 19 19 17 15
17 18 19 19 19 17 17 16 16 15 13 11 10 10 3 3 8 11 14 10 11 6 13 16 12 7 6 7 5 5 10 6 6 9 9 6 13 11 17 23 21 19 16 14 13
19 18 19 20 20 20 18 18 18 17 14 12 10 9 3 5 6 15 10 8 10 14 13 12 16 13 9 6 4 11 4 8 5 8 11 15 7 11 20 21 21 18 13 12 11
20 20 20 20 21 21 20 19 18 18 15 12 8 5 5 12 11 12 11 6 8 11 14 15 9 7 8 7 2 9 7 7 8 5 4 8 8 7 13 19 19 16 13 13 11
21 21 21 21 20 23 23 22 20 17 14 11 5 4 7 6 15 11 10 10 11 14 16 14 11 7 2 7 6 5 5 4 6 10 4 9 7 4 10 19 17 16 13 12 10
21 22 22 23 22 22 24 26 21 14 7 7 2 3 8 2 7 12 12 10 14 16 15 13 7 4 4 3 4 2 4 5 8 7 3 6 5 8 8 18 18 17 13 10 9
22 22 22 23 24 23 30 16 6 13 4 7 7 5 7 8 6 10 11 12 11 11 9 10 8 5 1 4 4 6 5 4 5 2 8 7 14 6 11 9 18 17 15 11 9
24 23 24 25 24 21 13 2 2 1 5 10 9 7 11 12 9 9 9 9 10 8 8 10 5 6 12 12 13 12 9 11 5 4 3 7 3 23 13 15 1 10 16 15 11
25 25 25 25 23 21 4 4 10 7 9 19 20 16 21 12 7 10 9 8 7 8 11 7 8 10 13 9 12 20 6 3 6 5 6 6 9 7 9 13 19 11 14 17 14
26 26 27 28 31 5 6 10 10 16 5 16 14 10 17 12 8 10 11 9 9 10 12 10 14 7 6 11 13 12 5 5 7 12 6 5 3 1 1 6 16 12 18 18 19
27 26 27 34 3 4 5 9 16 12 5 7 9 12 12 9 8 14 15 9 7 12 15 11 14 9 12 9 10 2 1 8 9 11 5 1 4 4 2 8 7 10 17 15 19
28 27 27 15 8 4 7 13 6 3 4 6 11 7 11 13 5 12 12 9 11 12 8 13 12 13 10 13 4 7 6 4 8 6 6 4 5 6 10 11 21 18 17 7 18
28 27 26 2 4 10 17 15 3 1 7 4 10 11 14 13 14 17 9 8 8 11 15 16 16 12 12 6 2 6 7 9 7 5 1 6 4 5 4 7 5 7 3 8 18
32 25 13 10 5 10 11 6 1 4 7 9 9 10 11 11 14 14 14 13 8 4 7 13 18 16 16 8 5 7 5 5 4 4 3 12 8 5 9 6 7 9 12 16 15
35 34 9 7 14 10 5 1 5 10 12 6 11 13 11 9 13 11 14 11 9 9 8 7 12 14 16 11 10 8 6 5 4 3 5 12 2 3 10 7 10 14 10 12 16
38 2 3 6 21 4 1 4 6 6 8 16 4 10 7 10 12 15 13 9 12 13 11 5 15 20 18 17 11 9 7 11 5 5 2 5 1 7 7 6 7 16 15 22 33
5 4 6 6 17 4 2 7 9 9 18 19 8 5 9 13 11 10 11 14 15 11 15 10 9 16 17 5 4 9 6 3 4 2 4 3 2 4 1 3 23 24 20 26 27
3 3 3 16 8 2 5 7 9 16 18 12 10 11 14 7 8 13 14 15 17 14 10 10 8 11 7 7 6 5 5 5 3 4 4 5 5 8 13 18 25 20 15 19 16
4 3 11 12 3 4 7 6 10 22 23 21 4 8 13 11 10 7 8 10 10 12 8 9 5 3 11 14 9 9 9 8 5 8 6 3 5 18 18 19 9 17 5 20 20
4 4 4 6 4 7 8 16 20 21 21 20 8 7 10 9 7 7 11 11 3 6 5 3 3 3 10 10 9 6 9 6 4 2 7 5 4 13 4 12 14 33 24 18 17
3 3 2 3 7 9 10 11 14 19 20 20 15 5 8 8 8 6 10 8 4 4 4 8 2 6 6 7 3 4 8 9 4 3 5 2 8 8 8 16 28 26 22 24 19
3 3 4 2 6 12 12 11 17 17 14 15 6 4 9 7 9 9 12 15 6 6 4 4 6 6 9 11 15 9 11 8 2 7 4 11 11 11 18 21 21 24 15 19 20
3 4 6 7 11 13 13 11 16 19 11 10 6 10 6 7 7 9 8 6 5 6 7 8 5 5 7 10 14 15 11 8 5 6 11 8 3 11 8 18 14 13 12 15 12
5 5 3 7 9 9 7 9 12 13 11 13 11 4 8 4 7 8 10 10 9 4 4 2 4 6 7 9 11 8 8 6 4 2 2 3 7 11 5 10 8 9 14 15 14
Wind_Direction
3 359 352 348 342 339 339 337 332 326 327 323 323 326 327 327 309 233 253 229 182 173 173 200 220 231 301 63 152 139 120 271 265 163 139 118 87 92 113 131 144 142 139 140 143
3 358 352 348 342 337 334 331 328 323 323 323 325 326 327 332 287 248 245 165 130 153 188 200 5 72 346 147 286 59 171 205 253 222 130 112 119 140 127 106 120 124 126 139 141
359 356 351 345 341 337 332 326 322 320 317 315 318 322 323 318 278 221 179 159 154 174 226 46 17 66 203 184 181 212 233 217 247 260 118 131 150 130 139 120 128 135 143 146 153
357 352 348 343 340 335 330 324 320 318 316 312 311 315 318 262 26 102 131 150 158 178 327 25 11 331 257 207 205 233 248 221 236 173 137 153 147 151 141 138 133 137 147 150 163
358 351 345 342 338 335 329 323 318 317 316 315 313 319 282 225 252 134 134 142 149 187 178 200 197 228 261 288 305 260 161 150 146 145 123 159 130 120 125 129 131 139 153 159 172
353 350 345 340 336 332 327 321 317 314 313 313 310 316 226 254 115 145 155 156 197 189 209 177 201 215 246 282 321 352 148 136 199 63 152 106 164 107 127 131 137 146 160 171 180
352 347 342 341 335 331 325 318 312 309 308 306 299 289 263 250 141 157 170 190 217 208 241 252 277 315 335 313 299 42 356 2 124 143 172 115 36 104 138 136 142 150 169 186 186
349 344 341 338 337 329 322 315 307 300 298 294 275 273 252 290 162 164 193 200 218 244 254 276 289 313 330 297 328 76 54 32 296 14 145 112 214 148 170 143 151 159 178 188 183
346 341 339 335 334 328 319 310 297 290 267 276 228 221 268 237 198 184 192 219 215 233 245 258 265 266 354 25 340 252 181 193 274 273 305 313 207 208 187 154 162 166 177 181 179
342 340 337 333 330 331 320 287 287 316 231 218 258 317 258 226 202 223 196 219 253 256 259 240 238 244 50 94 240 226 187 120 217 311 128 323 283 188 188 169 170 167 171 175 179
341 339 335 329 327 334 343 348 322 275 254 206 198 231 292 225 208 202 189 219 252 284 278 278 279 195 218 208 243 259 208 187 207 2 97 202 263 2 330 28 301 176 172 173 178
340 336 333 328 321 321 290 248 259 326 273 222 248 242 262 280 173 202 192 205 235 252 266 275 253 256 210 249 273 294 80 181 170 187 164 239 104 78 42 117 266 297 309 181 171
337 335 332 326 316 289 227 238 291 311 297 279 236 223 243 245 204 213 182 207 239 256 256 255 262 182 239 271 276 293 144 210 180 191 345 131 105 308 180 160 253 282 298 207 178
334 333 333 329 309 331 235 238 239 250 296 261 195 226 241 238 227 240 191 186 222 247 271 271 287 220 223 258 277 38 277 286 218 173 188 121 230 313 223 221 253 248 296 212 178
331 330 328 320 308 268 306 325 220 207 290 161 166 191 192 215 211 232 250 204 220 255 252 261 269 288 242 258 220 247 286 303 311 307 108 350 98 256 168 225 233 242 227 287 186
322 324 330 83 195 248 294 301 317 269 248 171 154 203 180 213 233 249 224 220 197 233 269 276 287 292 281 279 311 306 293 305 278 245 297 181 119 272 242 214 242 235 180 315 187
317 311 304 302 231 338 319 264 239 230 297 156 163 169 181 197 220 229 251 215 204 217 267 277 271 273 273 271 270 253 290 306 341 17 271 140 210 281 223 288 284 274 24 334 194
318 307 244 215 244 295 300 313 244 253 248 289 165 174 181 209 204 218 254 214 215 212 259 259 280 249 249 211 206 221 222 162 261 156 187 288 272 293 357 21 337 339 359 7 312
318 171 232 234 219 247 276 214 220 224 264 341 305 164 180 197 215 199 217 228 217 205 212 247 278 289 301 225 199 237 244 233 243 201 158 174 311 144 349 335 321 309 161 163 238
311 276 238 193 158 186 199 246 243 264 304 320 324 299 191 199 191 198 207 220 230 223 197 229 249 272 285 306 302 177 222 5 333 253 290 31 286 211 127 119 336 296 201 197 227
243 263 158 134 149 169 221 239 263 271 269 284 322 316 325 315 235 208 214 223 214 224 212 206 203 270 325 297 220 313 309 272 181 183 213 171 248 206 180 149 198 257 249 175 156
303 272 146 145 150 208 236 250 271 282 293 293 246 291 290 307 321 333 259 222 214 193 196 226 201 250 233 260 257 202 231 223 147 275 235 153 255 178 198 173 220 338 284 91 90
294 274 166 172 219 236 246 238 249 268 274 281 270 244 273 292 317 328 328 307 344 151 130 62 318 281 317 321 307 208 240 246 260 321 274 141 245 193 58 43 348 331 89 90 106
277 273 188 200 250 252 268 277 264 241 257 276 285 273 330 317 314 312 309 310 150 103 137 94 193 200 225 228 307 335 293 297 70 326 315 179 122 128 106 74 30 320 106 115 119
226 284 19 263 248 238 257 276 288 296 262 243 258 300 291 312 324 315 310 320 300 168 157 133 215 256 280 297 297 269 247 236 58 258 306 202 145 167 141 123 122 243 128 118 120
334 1 329 293 295 310 209 242 260 282 293 312 196 212 261 276 263 275 334 343 180 327 337 0 271 240 278 292 295 297 303 210 231 320 21 112 101 184 176 143 172 212 94 95 89
351 340 266 292 305 314 303 286 278 252 282 288 299 346 225 49 5 325 306 292 282 179 150 330 80 18 272 267 287 311 288 141 137 116 212 212 234 154 154 162 206 146 117 109 108